Location: Hartford
(41.7640°N, 72.6860°W)
Time: 08:04:47
(UTC-04:00)

ISS - All Passes

Search period start: 21 August 2014 00:00
Search period end: 31 August 2014 00:00
Orbit: 413 x 419 km, 51.6° (Epoch: 21 August)

Date Brightness Start Highest point End Pass type
(mag) Time Alt. Az. Time Alt. Az. Time Alt. Az.
21 Aug - 14:40:36 10° SW 14:43:55 85° SE 14:47:15 10° NE daylight
21 Aug - 16:18:20 10° WNW 16:20:59 22° NNW 16:23:39 10° NE daylight
21 Aug - 17:56:36 10° NW 17:58:38 15° N 18:00:40 10° NE daylight
21 Aug - 19:33:13 10° NW 19:36:11 28° NNE 19:39:07 10° E daylight
21 Aug - 21:09:48 10° WNW 21:13:02 47° SW 21:16:14 10° SE visible
22 Aug - 13:52:14 10° SW 13:55:26 47° SE 13:58:39 10° ENE daylight
22 Aug - 15:29:22 10° W 15:32:18 28° NNW 15:35:14 10° NE daylight
22 Aug - 17:07:49 10° NW 17:09:51 15° N 17:11:52 10° NE daylight
22 Aug - 18:44:49 10° NW 18:47:29 22° NNE 18:50:09 10° ENE daylight
22 Aug - 20:21:12 10° WNW 20:24:33 83° SW 20:27:53 10° SE visible
23 Aug - 13:04:09 10° SSW 13:07:00 27° SE 13:09:52 10° ENE daylight
23 Aug - 14:40:29 10° W 14:43:38 39° NNW 14:46:48 10° NE daylight
23 Aug - 16:18:52 10° NW 16:21:03 16° N 16:23:13 10° NNE daylight
23 Aug - 17:56:21 10° NNW 17:58:44 18° NNE 18:01:07 10° ENE daylight
23 Aug - 19:32:41 10° NW 19:36:00 58° NNE 19:39:17 10° ESE daylight
23 Aug - 21:10:11 10° W 21:12:25 17° SW 21:14:40 10° S visible
24 Aug - 12:16:31 10° S 12:18:37 16° SE 12:20:43 10° E daylight
24 Aug - 13:51:43 10° WSW 13:55:00 62° NNW 13:58:19 10° NE daylight
24 Aug - 15:29:50 10° WNW 15:32:15 18° NNW 15:34:40 10° NNE daylight
24 Aug - 17:07:47 10° NNW 17:09:56 16° N 17:12:05 10° NE daylight
24 Aug - 18:44:13 10° NW 18:47:21 37° NNE 18:50:30 10° E daylight
24 Aug - 20:21:05 10° WNW 20:24:01 29° SW 20:26:57 10° SSE visible
25 Aug - 13:03:07 10° SW 13:06:26 78° SE 13:09:45 10° ENE daylight
25 Aug - 14:40:46 10° WNW 14:43:28 22° NNW 14:46:10 10° NE daylight
25 Aug - 16:19:04 10° NW 16:21:05 15° N 16:23:07 10° NE daylight
25 Aug - 17:55:45 10° NW 17:58:39 27° NNE 18:01:33 10° E daylight
25 Aug - 19:32:17 10° WNW 19:35:32 51° SW 19:38:46 10° SE daylight
26 Aug - 12:14:43 10° SSW 12:17:53 43° SE 12:21:04 10° ENE daylight
26 Aug - 13:51:44 10° W 13:54:42 29° NNW 13:57:41 10° NE daylight
26 Aug - 15:30:11 10° NW 15:32:14 15° N 15:34:16 10° NE daylight
26 Aug - 17:07:15 10° NW 17:09:53 21° NNE 17:12:30 10° ENE daylight
26 Aug - 18:43:38 10° NW 18:46:58 90° ENE 18:50:18 10° SE daylight
26 Aug - 20:22:28 10° WSW 20:23:12 11° SW 20:23:57 10° SW visible
27 Aug - 11:26:37 10° SSW 11:29:23 25° SE 11:32:10 10° ENE daylight
27 Aug - 13:02:48 10° WSW 13:05:59 42° NNW 13:09:10 10° NE daylight
27 Aug - 14:41:09 10° NW 14:43:21 16° N 14:45:34 10° NNE daylight
27 Aug - 16:18:42 10° NNW 16:21:03 18° NNE 16:23:23 10° ENE daylight
27 Aug - 17:55:03 10° NW 17:58:20 54° NNE 18:01:36 10° ESE daylight
27 Aug - 19:32:24 10° W 19:34:47 19° SW 19:37:11 10° S daylight
28 Aug - 10:39:02 10° SSE 10:40:56 14° SE 10:42:50 10° E daylight
28 Aug - 12:13:59 10° WSW 12:17:17 68° NNW 12:20:37 10° NE daylight
28 Aug - 13:52:02 10° WNW 13:54:29 19° NNW 13:56:57 10° NNE daylight
28 Aug - 15:30:03 10° NNW 15:32:10 16° N 15:34:17 10° NE daylight
28 Aug - 17:06:30 10° NW 17:09:37 35° NNE 17:12:42 10° E daylight
28 Aug - 18:43:18 10° WNW 18:46:18 32° SW 18:49:18 10° SSE daylight
29 Aug - 11:25:20 10° SW 11:28:38 71° SE 11:31:57 10° ENE daylight
29 Aug - 13:02:54 10° WNW 13:05:38 23° NNW 13:08:23 10° NE daylight
29 Aug - 14:41:14 10° NW 14:43:15 15° N 14:45:15 10° NE daylight
29 Aug - 16:17:58 10° NW 16:20:49 26° NNE 16:23:40 10° E daylight
29 Aug - 17:54:27 10° WNW 17:57:44 56° SW 18:01:00 10° SE daylight
30 Aug - 10:36:55 10° SSW 10:40:02 39° SE 10:43:10 10° ENE daylight
30 Aug - 12:13:48 10° W 12:16:49 31° NNW 12:19:50 10° NE daylight
30 Aug - 13:52:15 10° NW 13:54:19 15° N 13:56:22 10° NE daylight
30 Aug - 15:29:23 10° NW 15:31:58 20° NNE 15:34:32 10° ENE daylight
30 Aug - 17:05:45 10° NW 17:09:05 82° NE 17:12:24 10° ESE daylight
30 Aug - 18:44:06 10° WSW 18:45:21 12° SW 18:46:36 10° SSW daylight
